Location: Unspecified
(48.7670°N, 0.0000°E)
Time: 10:23:33
(UTC+00:00)

Altair - Pass Details

Date: 03 July 2019
Orbit: 1501 x 1683 km, 47.2° (Epoch: 19 July)

Event Time Altitude Azimuth Distance (km) Brightness Sun altitude
Rises 15:53:52 0° 210° (SSW) 4,629 10.5 38.3°
Reaches altitude 10° 15:57:08 10° 202° (SSW) 3,661 10.0 37.8°
Maximum altitude 16:05:17 37° 140° (SE) 2,230 8.4 36.5°
Drops below altitude 10° 16:13:41 10° 78° (ENE) 3,777 9.2 35.1°
Sets 16:17:06 0° 70° (ENE) 4,791 9.6 34.5°
